Regional Weather Roundup
Issued by NWS Nashville, TN

Home | Current Version | Previous Version | Text Only | Print | Product List | Glossary On
Versions: 1 2 3 4 5 6 7 8 9 10 11 12 13 14 15 16 17 18 19 20 21 22 23 24 25 26 27 28 29 30 31 32 33 34 35 36 37 38 39 40 41 42 43 44 45 46 47 48 49 50
000
ASUS44 KOHX 070310
RWROHX
MIDDLE TENNESSEE HOURLY WEATHER ROUNDUP
NATIONAL WEATHER SERVICE NASHVILLE TN
1000 PM CDT MON JUL 06 2015

NOTE: "FAIR" INDICATES FEW OR NO CLOUDS BELOW 12,000 FEET WITH
NO SIGNIFICANT WEATHER AND/OR OBSTRUCTIONS TO VISIBILITY.

* THESE REPORTS ARE NOT UNDER NWS QUALITY CONTROL AND MAY NOT
  REPORT WEATHER SUCH AS PRECIPITATION AND FOG.


TNZ005>011-023>034-057-059-062>066-078-080-070400
...NORTHERN MIDDLE TENNESSEE...

CITY           SKY/WX    TMP DP  RH WIND       PRES   REMARKS
CLARKSVILLE    CLEAR     78  73  84 SW6       30.04R
CROSSVILLE     CLEAR     71  66  84 CALM      30.15R
GALLATIN         N/A     78  32  18 CALM      30.08
DICKSON        CLEAR     75  73  94 S5        30.06R
NASHVILLE      PTCLDY    77  72  84 S5        30.07R
PORTLAND       PTCLDY   N/A N/A N/A S5        30.06R
ROCKWOOD       PTCLDY    71  69  93 W5        30.14R
SMYRNA         CLEAR     77  72  84 CALM      30.08R
SPARTA         CLEAR     72  72 100 CALM      30.10R
$$
TNZ056-058-060-061-075>077-079-093>097-070400
...SOUTHERN MIDDLE TENNESSEE...

CITY           SKY/WX    TMP DP  RH WIND       PRES   REMARKS
COLUMBIA       CLEAR     77  75  94 S5        30.07R
LEWISBURG      CLEAR     73  69  87 CALM      30.08R
MCMINNVILLE    CLEAR     73  73 100 CALM      30.11R
SHELBYVILLE    CLEAR     75  73  94 S5          N/A
TULLAHOMA      PTCLDY    73  70  88 CALM      30.12R
WINCHESTER     CLEAR     73  72  94 CALM      30.12R
$$


...KEY TO REMARKS...
VSB - VISIBILITY IN MILES
WCI - WIND CHILL INDEX
HX  - HEAT INDEX



USA.gov is the U.S. government's official web portal to all federal, state and local government web resources and services.